Regional Weather Roundup
Issued by NWS

Home | Current Version | Previous Version | Text Only | Print | Product List | Glossary On
Versions: 1 2 3 4 5 6 7 8 9 10 11 12 13 14 15 16 17 18 19 20 21 22 23 24 25 26 27 28 29 30 31 32 33 34 35 36 37 38 39 40 41 42 43 44 45 46 47 48 49 50
000
ASCA42 TJSJ 042110
RWRPR
PUERTO RICO/U.S. VIRGIN ISLANDS HOURLY WEATHER ROUNDUP
NATIONAL WEATHER SERVICE SAN JUAN PR
500 PM AST MON MAY 04 2015

PRZ001-004-042200-
PUERTO RICO

CITY           SKY/WX    TMP DP  RH WIND       PRES   REMARKS
SAN JUAN LMM   MOSUNNY   88  72  58 E22G29    30.03S HX  94
PONCE          MOSUNNY   88  73  62 SE12G23   29.99F HX  96
AGUADILLA      PTSUNNY   88  72  58 E17G24    30.00F HX  94
CEIBA          SUNNY     84  73  70 SE16      30.06S HX  91
$$

PRZ006-007-042200-
U.S. VIRGIN ISLANDS

CITY           SKY/WX    TMP DP  RH WIND       PRES   REMARKS
CHARLOTTE AMA  SUNNY     84  72  65 SE15G23   30.04S
CHRISTIANSTED  MOSUNNY   84  72  65 E18G26    30.04S
$$

HOURLY WEATHER ROUNDUP FOR THE NEWS MEDIA

CITY           SKY/WX    TMP DP  RH WIND       PRES   REMARKS
ORLANDO        MOSUNNY   80  54  40 E15G26    30.18F
NEW YORK       MOSUNNY   72  46  40 MISG      30.16F
NEWARK         MOSUNNY   84  40  21 SW23G29   30.12F
CHICAGO        CLOUDY    70  56  61 E13       30.12S
HARTFORD       SUNNY     71  44  37 SW17G26   30.15F
BOSTON         MOSUNNY   79  44  28 S20G28    30.06F
DALLAS         MOSUNNY   83  58  42 S17G25    30.03F
PHILADELPHIA   MOSUNNY   84  40  21 S15       30.16F
LOS ANGELES    MOSUNNY   64  51  62 W15G21    29.98F
WASHINGTON DC  MOSUNNY   83  48  29 S13G18    30.15F


USA.gov is the U.S. government's official web portal to all federal, state and local government web resources and services.